Temp
69 63 60 66 69 70 69 66 69 72 79 77 75 75 73 73 74 73 74 74 76 77 81 82 83 83 83 82 81 80 79 80 80 81 81 82 83 84 85 85 85 85 85 85
62 60 69 71 68 67 67 65 67 73 76 76 76 75 77 73 73 74 73 73 76 78 79 80 82 83 82 81 80 79 79 79 80 82 82 84 84 85 87 87 85 86 86 86
62 66 69 66 65 64 65 65 65 68 74 78 73 70 71 73 75 76 78 78 77 78 78 79 80 81 83 81 80 80 79 79 80 82 82 81 82 83 84 85 85 86 86 87
65 71 66 65 64 66 61 70 68 67 66 64 75 62 69 72 71 73 76 77 79 79 80 82 82 82 83 82 83 81 80 80 81 81 81 80 82 82 85 85 87 86 85 86
63 65 65 62 65 69 65 71 68 68 65 66 67 64 73 73 70 72 76 78 80 82 82 82 82 83 84 85 84 83 80 80 81 80 81 82 82 85 85 85 83 83 84 85
68 71 71 69 71 70 73 68 68 69 67 56 65 65 68 71 72 76 79 79 80 82 83 83 85 85 84 86 85 84 80 79 80 80 80 80 81 82 82 82 84 86 87 87
59 65 71 73 67 71 69 65 55 52 53 53 70 63 67 78 80 83 80 80 81 83 83 83 82 83 83 84 83 84 80 78 80 80 81 81 81 81 80 82 84 85 86 86
51 53 64 66 68 65 65 66 58 47 52 57 68 59 68 81 85 84 86 86 85 83 83 83 83 83 83 84 83 83 80 79 80 80 80 80 81 84 84 83 86 86 87 87
49 52 59 61 64 68 65 60 71 61 60 58 65 68 76 79 82 85 85 85 84 84 84 84 85 85 85 84 83 82 81 79 80 81 80 80 81 81 83 83 83 86 85 87
49 47 56 58 63 66 66 72 59 61 49 48 59 62 66 73 77 82 82 84 85 87 85 86 86 86 86 86 85 84 83 80 81 82 82 82 82 81 82 82 81 83 84 83
53 47 53 56 58 61 60 62 64 65 62 54 53 60 76 77 80 82 86 86 87 87 86 87 86 87 87 87 86 85 83 82 82 82 82 82 82 82 82 83 82 83 83 83
51 49 44 51 59 60 56 58 63 56 55 60 61 62 80 81 83 83 84 87 88 88 89 87 88 87 86 86 87 86 86 84 84 83 82 82 82 82 82 82 83 83 82 83
51 44 42 50 53 56 53 53 55 54 57 56 55 60 80 82 83 84 83 87 85 85 87 87 88 87 86 86 85 87 87 87 87 84 83 82 82 82 82 82 83 83 82 83
53 44 43 44 44 47 46 49 52 53 54 58 60 64 73 77 79 80 80 81 82 81 84 86 86 87 87 86 85 85 87 89 88 86 85 82 81 82 83 82 82 82 82 82
49 41 44 47 48 47 46 47 50 49 54 53 63 62 70 74 70 71 73 74 76 78 81 83 85 86 85 85 85 85 86 86 87 84 83 82 82 82 82 82 82 82 82 83
45 42 43 42 48 48 45 49 51 52 54 54 56 57 69 69 70 69 68 69 71 74 76 79 84 85 85 85 84 84 85 85 85 82 82 82 82 81 81 81 81 81 81 81
42 43 39 38 45 45 43 50 52 55 56 58 55 62 60 66 65 65 66 67 68 70 72 75 78 84 85 87 83 83 84 85 82 81 82 82 81 80 80 81 81 80 80 82
41 37 39 37 42 34 51 56 62 56 53 54 55 57 58 63 67 69 68 66 67 68 70 72 76 81 88 90 89 86 86 83 81 81 81 81 81 80 81 80 80 80 81 80
47 42 37 34 35 45 47 44 44 46 48 54 52 55 55 60 65 68 67 67 65 65 69 72 76 81 88 90 89 85 84 83 82 81 81 81 81 80 80 80 80 81 80 80
44 45 38 37 31 32 37 44 49 49 44 54 53 53 52 62 62 63 63 65 65 67 68 70 79 87 91 89 91 84 82 82 81 82 82 82 82 81 80 80 80 81 82 82
32 34 31 35 32 40 39 43 47 38 42 47 52 53 52 55 57 61 63 62 64 65 69 73 76 83 87 88 86 82 82 81 83 85 84 82 82 81 81 81 81 81 81 83
33 31 31 34 31 30 43 42 36 40 47 49 51 53 52 58 59 60 60 60 62 63 67 70 70 72 81 85 83 81 80 83 83 83 83 82 81 83 84 81 81 81 80 79
32 34 34 35 39 44 45 43 46 46 46 48 50 54 55 56 57 58 58 59 62 62 64 68 69 69 71 73 81 80 79 81 82 81 81 81 82 82 84 81 80 81 80 83
36 38 35 35 41 41 44 47 47 47 47 50 52 54 55 54 56 56 58 58 59 61 63 65 67 67 66 71 73 74 76 80 81 80 80 81 81 80 82 84 84 84 84 83
35 37 35 36 39 41 45 47 48 48 51 53 55 55 54 55 55 56 56 58 59 62 62 65 65 65 65 67 71 73 74 78 80 81 81 80 81 79 82 84 85 85 86 82
38 36 34 34 40 41 43 47 50 47 47 51 51 52 55 56 55 56 56 59 61 62 64 64 67 66 66 67 69 70 73 74 76 77 80 78 82 83 84 83 80 53 54 51
MSLP
1008.70 1008.42 1006.99 1007.17 1007.68 1007.37 1006.97 1006.41 1005.47 1005.07 1004.72 1004.69 1004.77 1005.42 1006.67 1008.02 1008.91 1009.42 1009.90 1010.41 1010.73 1011.13 1011.92 1012.59 1013.21 1013.87 1014.57 1015.18 1015.81 1016.44 1016.93 1017.31 1017.78 1018.07 1018.34 1018.54 1018.59 1018.93 1019.00 1019.04 1019.22 1019.38 1019.76 1020.09
1008.78 1007.21 1007.32 1007.88 1008.10 1007.77 1007.22 1006.56 1005.87 1005.23 1004.98 1004.90 1004.45 1004.79 1005.94 1007.09 1007.58 1008.35 1009.01 1009.76 1010.08 1010.83 1011.29 1011.94 1012.53 1013.15 1013.81 1014.48 1015.09 1015.86 1016.43 1017.00 1017.48 1017.77 1017.93 1018.13 1018.30 1018.57 1018.69 1018.83 1019.13 1019.22 1019.45 1019.83
1007.37 1006.93 1007.37 1007.71 1007.77 1007.59 1007.02 1006.57 1006.17 1005.51 1004.99 1004.51 1004.66 1004.59 1005.43 1006.38 1007.21 1008.03 1008.52 1009.05 1009.89 1010.01 1010.45 1011.13 1011.70 1012.27 1012.97 1013.63 1014.28 1014.96 1015.72 1016.41 1016.98 1017.42 1017.84 1018.12 1018.32 1018.59 1018.71 1018.86 1018.99 1018.95 1019.27 1019.55
1007.32 1006.84 1007.03 1006.99 1006.81 1007.19 1006.46 1006.63 1006.69 1006.13 1005.63 1004.25 1004.23 1003.48 1004.13 1005.03 1005.93 1006.74 1007.26 1007.82 1008.27 1008.97 1009.74 1010.31 1010.96 1011.49 1011.97 1012.65 1013.58 1014.37 1015.05 1015.80 1016.50 1017.06 1017.39 1017.57 1017.64 1017.85 1018.15 1018.56 1018.80 1018.82 1019.09 1019.35
1006.52 1006.30 1006.33 1006.54 1006.22 1006.79 1006.19 1006.54 1006.45 1006.39 1005.89 1005.19 1004.22 1003.69 1002.40 1003.76 1004.40 1004.96 1005.61 1006.32 1006.97 1007.57 1008.35 1008.95 1009.52 1010.10 1010.82 1011.92 1012.71 1013.58 1014.43 1015.17 1015.78 1016.45 1016.78 1017.16 1017.39 1017.51 1017.97 1018.38 1018.70 1018.87 1018.99 1019.19
1006.29 1006.34 1005.87 1005.63 1005.85 1006.23 1006.33 1006.35 1006.20 1006.14 1005.80 1004.37 1003.74 1003.47 1001.65 1002.15 1002.70 1003.02 1003.95 1004.94 1005.68 1006.30 1007.11 1007.89 1008.59 1009.52 1010.31 1011.15 1012.01 1012.84 1013.62 1014.28 1015.06 1015.78 1016.33 1016.65 1016.92 1017.26 1017.65 1018.03 1018.23 1018.45 1018.72 1018.82
1007.33 1006.26 1005.86 1005.62 1005.51 1005.79 1006.05 1005.72 1005.41 1005.51 1004.47 1002.68 1003.06 1002.75 1001.41 1000.96 1001.35 1001.34 1002.10 1003.12 1004.13 1005.01 1005.89 1006.61 1007.45 1008.35 1009.22 1010.04 1010.94 1011.85 1012.80 1013.44 1014.18 1014.85 1015.56 1016.03 1016.41 1016.92 1017.16 1017.44 1017.66 1017.85 1018.11 1018.37
1008.43 1007.13 1006.43 1006.32 1005.59 1005.15 1005.32 1004.89 1003.76 1003.30 1002.76 1002.51 1002.71 1000.50 999.85 1000.59 1000.57 1000.94 1001.16 1001.65 1002.65 1003.68 1004.55 1005.32 1006.05 1006.97 1007.85 1008.67 1009.60 1010.71 1011.70 1012.58 1013.31 1014.03 1014.62 1015.25 1015.79 1016.25 1016.56 1016.91 1017.05 1017.35 1017.55 1017.74
1010.09 1008.45 1007.92 1007.30 1006.63 1005.85 1005.16 1004.30 1004.12 1003.68 1003.56 1002.33 1000.75 1000.68 1000.01 999.98 999.78 999.81 1000.17 1000.85 1001.24 1002.04 1002.97 1003.77 1004.71 1005.61 1006.47 1007.46 1008.43 1009.49 1010.52 1011.49 1012.28 1012.94 1013.81 1014.47 1015.04 1015.56 1015.78 1016.14 1016.66 1016.91 1017.21 1017.41
1011.96 1010.41 1008.80 1008.03 1007.40 1006.24 1005.29 1004.48 1004.62 1004.19 1002.99 1001.79 1000.38 999.76 998.47 998.61 998.91 999.03 999.40 999.61 999.89 1000.62 1001.67 1002.69 1003.61 1004.40 1005.13 1006.04 1007.14 1008.35 1009.45 1010.28 1011.02 1011.95 1012.73 1013.46 1014.11 1014.72 1015.17 1015.77 1016.04 1016.32 1016.68 1017.17
1012.78 1012.20 1009.61 1008.91 1007.43 1006.12 1006.23 1005.23 1004.57 1003.81 1003.01 1001.45 1000.50 998.95 998.38 998.27 998.17 998.13 998.12 998.57 998.96 999.55 1000.21 1001.07 1001.92 1002.90 1003.84 1004.97 1006.12 1007.17 1008.36 1009.28 1010.16 1011.01 1011.77 1012.44 1013.12 1013.81 1014.51 1014.88 1015.30 1015.75 1016.21 1016.69
1013.74 1012.87 1011.03 1009.24 1008.60 1008.29 1007.93 1006.49 1005.31 1004.23 1003.27 1002.31 1000.83 998.80 998.54 998.27 998.23 998.36 998.25 998.23 998.59 998.91 999.06 999.75 1000.65 1002.03 1003.16 1003.91 1004.75 1005.62 1006.76 1007.86 1008.77 1009.68 1010.73 1011.55 1012.16 1012.88 1013.49 1013.96 1014.44 1015.03 1015.52 1016.01
1014.46 1013.66 1011.90 1009.65 1009.59 1009.13 1008.53 1008.25 1007.45 1006.30 1005.09 1002.79 1001.12 999.45 999.25 998.60 998.26 998.50 998.69 998.32 998.66 998.89 999.15 999.81 1000.53 1001.01 1001.80 1002.69 1003.61 1004.43 1005.37 1006.31 1007.38 1008.57 1009.60 1010.43 1011.17 1011.93 1012.47 1013.01 1013.61 1014.20 1014.78 1015.17
1015.07 1014.48 1013.16 1011.33 1011.12 1011.35 1010.32 1009.44 1008.71 1007.39 1005.13 1003.43 1001.72 1000.46 999.73 999.25 998.87 999.15 999.39 999.25 999.11 999.29 999.18 999.43 999.84 1000.15 1000.86 1001.76 1002.49 1003.31 1004.19 1005.15 1006.27 1007.45 1008.41 1009.24 1009.98 1010.71 1011.33 1012.05 1012.77 1013.33 1013.87 1014.33
1015.69 1014.85 1014.20 1012.93 1012.49 1012.02 1011.10 1010.14 1009.15 1008.08 1006.57 1004.59 1002.88 1001.90 1001.02 1000.48 1000.85 1000.75 1000.79 1000.53 1000.01 999.85 999.76 999.28 999.29 999.47 999.96 1000.83 1001.63 1002.56 1003.48 1004.49 1005.39 1006.49 1007.34 1008.12 1008.93 1009.73 1010.58 1011.33 1011.93 1012.55 1013.12 1013.41
1016.44 1015.38 1014.89 1013.30 1012.48 1011.64 1010.43 1009.64 1008.93 1008.13 1007.07 1006.13 1004.99 1003.63 1002.91 1002.47 1001.90 1001.59 1001.62 1001.33 1000.98 1000.32 999.83 999.74 999.19 999.16 999.36 999.73 1000.36 1001.24 1002.27 1003.31 1004.49 1005.57 1006.33 1007.27 1008.17 1008.93 1009.60 1010.33 1011.00 1011.73 1012.21 1012.67
1016.63 1016.04 1015.46 1013.52 1012.81 1011.69 1009.67 1008.16 1007.65 1007.31 1007.23 1006.51 1005.46 1004.62 1004.58 1003.30 1003.03 1002.82 1002.50 1002.35 1001.83 1001.34 1000.81 1000.31 999.69 998.76 998.38 998.44 999.23 1000.19 1001.05 1002.49 1003.66 1004.69 1005.51 1006.37 1007.19 1007.91 1008.49 1009.29 1010.18 1010.67 1011.17 1011.81
1016.66 1016.84 1016.36 1014.46 1013.41 1011.11 1008.88 1008.49 1006.35 1007.44 1008.21 1008.00 1007.22 1006.47 1006.03 1004.63 1004.05 1003.87 1003.77 1003.22 1002.29 1001.56 1000.73 999.99 999.35 998.36 997.49 997.77 998.71 1000.03 1001.05 1001.77 1002.94 1004.01 1004.81 1005.56 1006.34 1006.99 1007.75 1008.52 1009.16 1009.81 1010.49 1010.95
1016.61 1016.68 1016.10 1015.15 1013.67 1011.42 1010.21 1011.00 1010.55 1009.51 1009.29 1009.09 1008.29 1007.82 1007.15 1005.67 1004.77 1004.21 1004.49 1004.11 1003.39 1002.46 1001.31 1000.01 998.65 997.49 996.77 996.96 997.65 999.07 1000.27 1001.37 1002.34 1003.09 1003.95 1004.61 1005.40 1006.21 1006.99 1007.65 1008.24 1008.84 1009.53 1010.00
1016.43 1016.77 1016.42 1015.63 1014.68 1012.62 1012.53 1012.50 1012.06 1011.34 1010.15 1009.84 1009.40 1008.94 1007.95 1005.77 1004.85 1005.19 1005.15 1004.59 1003.91 1002.94 1001.51 999.89 997.77 996.09 995.71 996.17 996.99 998.37 999.58 1000.65 1001.13 1001.76 1002.67 1003.87 1004.75 1005.46 1006.03 1006.63 1007.15 1007.61 1008.27 1008.69
1016.69 1017.00 1016.45 1016.29 1015.61 1013.93 1013.83 1013.49 1012.67 1012.27 1011.94 1011.29 1010.41 1009.89 1008.91 1007.59 1007.50 1006.89 1006.05 1005.19 1004.45 1003.47 1001.71 1000.36 998.54 996.82 996.12 996.09 996.95 998.07 999.04 999.59 1000.26 1001.55 1002.51 1003.38 1003.97 1004.46 1005.03 1005.74 1006.33 1006.87 1007.49 1007.91
1016.70 1016.85 1016.73 1016.85 1015.97 1014.97 1014.68 1014.39 1014.31 1013.53 1012.55 1011.79 1011.01 1010.35 1009.53 1008.61 1007.96 1007.42 1006.73 1005.89 1004.78 1003.41 1002.36 1000.99 999.79 998.74 997.75 997.21 997.44 998.11 998.67 999.73 1000.49 1001.23 1001.90 1002.65 1003.31 1004.00 1004.57 1005.13 1005.63 1006.17 1006.75 1007.18
1017.63 1017.83 1017.04 1016.51 1015.12 1014.92 1014.90 1014.84 1014.47 1013.73 1012.92 1012.07 1011.37 1010.57 1009.90 1008.96 1008.31 1007.75 1007.21 1006.38 1005.53 1004.74 1003.04 1001.49 1000.91 1000.01 999.66 999.25 998.51 999.18 999.64 1000.04 1000.51 1001.01 1001.35 1001.95 1002.54 1003.12 1003.59 1004.29 1004.95 1005.64 1006.13 1006.21
1017.82 1017.63 1017.40 1016.79 1015.55 1015.14 1014.55 1014.57 1014.18 1013.57 1013.00 1012.09 1011.33 1010.56 1009.97 1009.22 1008.56 1008.08 1007.55 1006.85 1006.27 1005.38 1004.05 1002.99 1002.13 1001.28 1000.78 1000.48 1000.41 1000.39 1000.19 1000.16 1000.47 1000.80 1001.16 1001.70 1002.20 1002.73 1003.22 1003.75 1004.10 1004.49 1004.86 1005.30
1018.45 1017.90 1017.22 1016.56 1016.06 1015.47 1014.75 1014.39 1013.63 1012.75 1012.11 1011.49 1010.81 1010.22 1009.81 1009.21 1008.65 1008.30 1007.82 1007.30 1006.85 1006.05 1005.11 1004.25 1003.41 1002.60 1002.12 1001.70 1001.43 1001.19 1001.25 1001.14 1001.08 1001.11 1001.36 1001.76 1002.02 1002.73 1003.05 1003.06 1003.35 1003.69 1003.85 1004.40
1018.15 1017.95 1017.51 1016.44 1015.97 1015.20 1014.47 1013.95 1013.43 1012.57 1011.92 1011.45 1010.87 1010.05 1009.53 1009.16 1008.70 1008.41 1007.89 1007.50 1007.09 1006.29 1005.61 1004.65 1004.03 1003.46 1003.18 1002.83 1002.77 1002.55 1002.33 1002.28 1001.96 1001.77 1002.00 1002.57 1002.68 1001.60 1002.57 1002.87 1003.49 1004.11 1004.33 1004.74
Wind_Speed
8 13 22 20 15 10 7 5 12 7 8 13 15 15 13 16 15 18 20 21 22 24 21 20 19 19 18 17 16 16 15 13 10 9 8 7 7 5 4 4 5 6 5 6
7 20 16 14 11 15 12 6 8 9 5 9 12 17 12 19 22 21 21 21 22 21 22 21 21 20 20 19 18 16 16 14 12 9 8 5 6 5 3 3 4 5 6 6
12 2 16 16 14 15 18 18 9 6 4 9 5 11 12 15 14 17 19 18 19 22 23 23 23 22 20 21 20 18 16 15 13 12 8 5 4 2 4 4 4 6 7 7
12 13 13 18 23 18 19 15 14 11 6 8 10 11 10 15 20 20 20 21 22 23 23 22 23 23 23 21 19 18 17 15 14 14 11 11 9 8 7 6 4 5 7 7
9 10 15 17 19 18 13 8 16 18 13 11 12 8 13 14 16 21 22 23 23 23 24 25 26 26 25 21 20 18 17 15 14 14 13 12 11 8 6 7 8 6 6 7
12 1 11 13 14 18 10 6 11 12 13 18 19 12 14 13 18 18 20 23 24 24 25 25 24 22 21 20 20 19 18 17 16 16 16 15 13 11 9 8 8 8 7 6
2 12 6 6 11 17 16 13 5 9 12 16 15 17 16 7 17 18 19 22 24 25 25 25 25 24 23 23 22 19 18 18 17 18 17 17 15 14 13 12 10 9 9 7
3 9 9 4 9 10 21 18 8 12 13 14 15 13 15 23 14 11 14 18 21 24 24 25 26 24 24 24 23 22 20 19 18 18 18 16 16 12 12 12 11 9 9 9
3 5 3 3 1 7 12 23 19 9 2 9 13 17 16 7 17 18 17 14 19 23 25 28 27 26 24 23 24 23 22 20 19 20 16 16 15 15 13 14 12 10 8 8
2 6 1 3 5 11 9 7 16 13 19 13 7 17 13 20 20 14 11 16 18 20 23 23 24 25 23 24 23 23 22 22 20 20 18 16 16 16 14 12 14 12 10 10
1 2 1 5 5 6 8 10 8 9 17 14 9 10 5 16 15 20 23 19 17 18 21 24 24 24 24 23 23 23 22 22 20 19 18 18 16 17 15 15 14 13 12 11
1 2 6 5 2 9 6 6 10 11 13 15 16 17 2 7 6 6 9 13 15 17 19 22 24 23 23 23 23 25 24 23 21 20 18 18 17 16 17 16 16 14 14 12
2 2 5 6 5 4 2 2 0 3 1 13 14 12 8 18 17 11 12 11 7 13 15 15 18 21 22 23 22 22 23 25 24 21 20 19 18 17 17 16 15 15 14 14
2 4 8 9 10 8 5 3 2 5 10 15 16 13 9 10 13 12 9 7 5 5 12 15 17 20 20 21 22 22 22 23 22 22 21 19 19 19 18 16 16 16 15 14
2 6 8 15 14 15 16 18 15 12 9 11 14 16 13 11 13 14 9 8 9 8 7 11 18 18 20 20 20 20 20 19 20 21 20 20 18 18 16 15 16 16 15 15
1 3 5 15 10 11 17 18 18 17 18 12 16 17 7 12 10 10 9 10 9 11 11 11 14 18 20 21 21 21 21 21 21 20 20 18 18 17 17 17 16 16 16 16
3 3 3 8 9 15 12 16 20 13 7 14 13 10 10 9 6 11 13 11 11 12 13 13 13 17 19 22 22 23 23 21 21 20 19 18 18 18 18 17 16 16 16 15
6 4 2 7 10 8 6 12 10 12 5 3 6 7 9 4 6 10 11 13 15 15 16 16 14 15 21 21 22 16 20 20 20 19 18 18 18 18 16 16 16 15 14 15
15 8 4 5 6 17 9 8 7 3 6 6 5 8 10 10 10 2 15 15 13 13 14 16 17 18 17 20 19 19 19 19 19 19 19 18 18 17 16 17 16 14 15 15
15 14 8 6 7 8 6 11 11 6 6 8 10 10 12 8 8 4 18 17 16 13 11 13 15 14 18 19 22 20 20 20 20 20 20 17 17 17 17 17 17 16 15 15
8 9 15 11 9 9 6 15 13 8 5 13 10 10 10 6 6 13 14 15 13 11 13 11 10 4 9 16 18 19 19 21 18 16 16 16 17 17 16 15 13 13 14 12
5 9 6 7 7 14 8 5 6 5 11 11 12 10 10 9 9 11 12 13 15 16 15 15 12 13 9 7 13 15 15 12 13 15 16 16 16 14 14 15 14 14 13 13
3 3 2 4 2 5 5 8 10 9 12 13 13 12 11 11 9 12 12 12 13 13 12 14 14 16 16 16 9 9 6 8 12 14 15 15 15 15 13 14 13 12 13 12
2 1 2 4 1 10 12 9 8 11 13 14 13 12 11 10 10 10 10 10 10 12 13 12 13 16 16 15 16 13 9 3 11 12 12 12 13 13 13 11 11 11 11 12
2 6 4 4 7 12 7 10 11 10 13 11 10 9 9 9 10 9 10 10 10 10 10 9 11 12 13 13 16 16 14 10 6 6 7 9 8 11 11 11 10 11 10 10
5 3 4 3 8 8 7 12 10 9 12 13 11 11 8 7 8 10 9 9 9 11 11 11 12 12 12 12 13 14 13 12 10 9 8 6 2 5 7 8 7 5 5 4
Wind_Direction
180 195 211 205 216 223 219 225 223 211 209 204 219 225 190 180 185 185 186 189 193 196 192 194 195 193 193 195 197 196 198 199 188 186 187 202 203 207 230 227 227 217 197 173
171 221 217 217 218 221 227 229 221 244 235 222 228 234 202 183 197 193 189 194 197 193 194 196 197 196 196 195 198 196 203 196 197 192 190 201 194 202 220 205 211 212 198 179
204 196 191 201 204 215 227 231 218 252 292 240 224 240 199 202 201 199 203 199 201 202 198 197 197 200 197 198 197 196 197 198 200 200 190 171 164 174 198 196 203 203 201 196
228 223 187 200 211 208 227 221 238 250 273 235 214 240 204 194 201 202 201 201 202 204 204 201 202 200 203 201 198 198 194 195 200 195 194 199 202 207 210 205 209 205 211 211
197 194 191 206 217 205 235 224 226 237 250 271 241 248 233 194 205 211 208 206 206 204 202 203 202 204 202 198 199 197 194 193 197 194 200 199 211 211 205 206 208 211 208 214
225 262 204 204 210 197 207 233 224 227 236 244 237 239 239 204 209 217 212 210 209 206 204 205 207 203 204 201 198 198 193 195 194 193 200 199 205 206 207 208 212 215 210 201
272 213 188 215 202 205 207 208 196 207 214 235 216 229 232 225 212 218 206 210 208 207 206 203 203 202 200 201 199 198 193 197 195 197 200 203 206 206 210 209 220 225 223 211
254 192 214 127 229 216 202 206 208 215 217 226 212 232 225 224 227 229 229 215 208 207 208 206 201 199 199 197 195 194 193 197 194 199 200 202 205 211 219 221 229 229 232 227
295 242 332 257 345 206 184 218 225 270 272 243 221 239 254 226 235 231 225 220 212 208 207 207 202 201 198 196 197 195 194 197 194 197 199 202 203 209 216 218 216 224 226 228
95 284 114 303 287 232 234 201 201 225 237 234 206 234 231 201 226 220 210 218 221 211 208 206 207 204 199 196 195 193 198 197 196 199 199 202 202 205 211 212 217 216 217 216
76 272 187 261 199 239 189 210 219 247 230 229 236 233 212 221 223 226 227 220 218 208 204 204 204 202 199 195 192 195 196 197 198 199 200 201 204 207 207 212 215 214 210 206
64 243 266 266 348 306 292 287 255 230 203 238 253 233 249 233 241 224 248 245 242 226 210 202 202 199 199 198 194 193 195 196 198 198 198 202 203 204 207 210 212 210 210 207
179 226 270 233 177 109 68 89 160 275 158 233 227 240 238 265 267 251 268 266 256 237 221 209 202 200 197 196 195 196 195 197 198 196 198 199 202 200 207 209 207 206 207 209
195 253 266 281 345 346 294 261 233 274 227 226 232 262 256 234 273 321 319 307 322 250 219 207 204 202 199 198 197 196 198 198 195 195 199 199 197 200 204 205 204 204 205 207
244 258 282 285 289 285 273 266 257 249 262 240 227 242 261 290 321 322 322 323 315 308 282 225 212 204 200 197 195 196 198 194 193 192 195 199 197 201 202 202 203 204 207 211
183 247 297 291 297 288 270 260 250 242 249 249 263 277 285 320 321 337 345 335 322 314 311 289 243 212 200 197 195 192 190 189 186 191 195 193 194 195 197 200 200 201 206 210
217 233 271 265 334 311 268 247 232 228 216 220 222 229 329 297 352 0 345 338 329 314 304 288 268 235 204 198 188 191 189 181 187 190 191 191 192 194 196 197 199 202 206 207
170 155 245 292 311 243 50 4 222 160 135 235 267 302 311 342 101 40 12 346 335 328 315 301 280 261 217 204 194 188 186 183 185 189 191 190 192 195 193 195 199 202 205 210
216 191 244 259 269 294 292 28 359 355 109 46 9 331 321 313 254 3 5 353 339 319 309 299 283 265 225 200 183 177 180 180 182 188 193 192 191 191 191 196 198 200 204 209
195 219 221 228 263 261 55 341 336 298 177 23 13 358 348 320 194 38 339 339 338 333 334 322 301 244 188 187 176 170 173 179 189 189 192 188 188 190 193 194 197 201 204 213
159 192 223 231 250 284 360 325 316 219 46 329 342 345 356 27 347 316 331 331 330 332 9 359 13 56 173 167 165 170 172 190 192 187 185 186 189 193 196 195 197 199 206 216
164 181 193 217 246 257 21 334 301 323 315 315 315 324 332 338 336 337 336 335 339 346 14 25 43 50 56 148 160 171 180 173 175 179 183 186 188 194 197 198 196 199 202 209
108 290 286 250 293 338 296 278 277 296 306 305 307 309 315 323 335 337 332 344 345 340 358 26 36 55 52 50 79 128 136 173 179 181 185 188 188 192 194 193 197 201 205 215
327 309 228 280 263 298 277 224 279 300 291 293 293 292 301 311 327 333 339 345 336 344 357 9 29 43 44 48 57 57 48 137 186 190 190 190 193 191 195 197 200 205 208 212
302 304 291 269 265 303 189 287 313 324 318 301 313 291 291 307 323 332 333 341 335 343 348 7 21 36 40 39 43 41 41 50 116 151 175 194 188 190 198 205 203 208 213 216
340 3 323 278 303 299 280 324 329 332 320 312 312 317 299 303 317 325 326 334 330 338 347 2 21 27 28 36 41 36 32 32 44 63 75 58 132 155 206 207 202 82 41 33